Simultaneous Nadir Overpasses (SNOs) Predictions

Prediction of SNOs between METOP-B and NOAA-19 Satellite Orbit:

Table of predicted SNOs for the next 14.0 days since TLE Epoch: 1/17/2014
Index Date (METOP-B) Time (METOP-B) Lat,Lon (METOP-B) SZA (METOP-B ) Date (NOAA-19) Time (NOAA-19) Lat,Lon (NOAA-19) SZA (NOAA-19 ) Distance(km) Time Diff (sec)
1 01/21/2014 23:39:31 73.72, 179.53 93.54 01/21/2014 23:38:19 73.71, 179.42 93.55 3.62 72
2 01/22/2014 00:30:13 -73.69, -13.21 86.50 01/22/2014 00:29:14 -73.68, -13.24 86.50 1.11 59
3 01/22/2014 01:20:54 73.65, 154.03 93.46 01/22/2014 01:20:22 73.66, 154.03 93.47 1.35 32
4 01/22/2014 02:11:36 -73.62, -38.72 86.58 01/22/2014 02:11:17 -73.63, -38.63 86.57 3.06 19
5 01/22/2014 03:02:16 73.63, 128.64 93.42 01/22/2014 03:02:25 73.61, 128.64 93.40 1.96 9
6 01/22/2014 03:52:58 -73.59, -64.10 86.62 01/22/2014 03:53:20 -73.58, -64.03 86.64 2.93 22
7 01/22/2014 04:43:39 73.55, 103.13 93.34 01/22/2014 04:44:28 73.56, 103.24 93.33 3.45 49
8 01/22/2014 05:34:20 -73.57, -89.49 86.65 01/22/2014 05:35:24 -73.58, -89.54 86.66 1.50 64
9 01/22/2014 06:25:14 72.88, 76.31 92.72 01/22/2014 06:26:19 72.91, 79.20 92.62 94.70 65




NCC Satellite Simultaneous Nadir Overpasses (SNOs) Prediction Service
